Погода в Жуковском

Россия / Московская область     55°35′50″N   38°07′11″E
темп.,
°C
ветер,
м/с
пор.,
м/с
влажн.,
%
обл.,
%
осадки,
мм/ч
давл.,
гПа
погр.,
м
6 марта, сб
сб600:00−10зсз33880 0.0 101523
03:00−11сз23870 0.0 101621
06:00−12сз23910 0.0 101622
09:00−10зсз35949 0.0 1017162
12:00−6зсз468669 0.0 1017659
15:00−5зсз467783 0.2 10161052
18:00−8зсз3483100 0.2 101571
21:00−11з348653 0.2 101459
7 марта, вс
вс700:00−11юз47890 0.0 1012125
03:00−9ююз7138843 0.0 1009349
06:00−8юз81591100 0.1 1004762
09:00−5юз91590100 0.5 9991029
12:00−3юз101691100 0.4 9941132
15:00−1з111596100 1.6 9931095
18:00−7з5117392 0.5 995268
21:00−9зюз497957 0.5 997157
8 марта, пн
пн800:00−8зюз3996100 0.7 996361
03:00−9з359499 1.3 996102
06:00−10зсз129687 0.2 99622
09:00−9сз6108493 1.1 998543
12:00−8зсз7108686 0.0 1001895
15:00−6сз798593 0.2 10041073
18:00−8сз4991100 0.2 1007296
21:00−13ссз359381 0.2 101085
9 марта, вт
вт900:00−15сз349511 0.0 101246
03:00−17ссз349612 0.0 101438
06:00−19ссз34970 0.0 101643
09:00−17ссз35940 0.0 1017228
12:00−13ссз348471 0.0 1018525
15:00−11ссз458485 0.1 1019784
18:00−14ссз348999 0.0 102048
21:00−18с239269 0.1 102220
10 марта, ср
ср1000:00−21с22953 0.0 102320
03:00−24св119314 0.0 102420
06:00−21юв129185 0.0 102420
09:00−18юв349292 0.0 1023166
12:00−14вюв4694100 0.4 1023306
15:00−12вюв4691100 0.6 1022424
18:00−13вюв4793100 0.1 1022288
21:00−17вюв4895100 0.1 1023155